When you browse on this site, cookies collect data to enhance your experience and personalize the content and advertising you see.
Visit our Privacy Policy to learn more. By continuing to use the site, you agree to this use of cookies and data.
  • In Romania
  • List of Countries
  • For 7 days
  • Water Temperature
  • Weather Map
  • Weather Widgets
  • user-avatar
    Login

    Hourly Weather Jewłach

    Today, 18 November, Monday

    Time Temperature Precipitation Wind Pressure Humidity
    00:00 +6°C° 0 mm 0 mps 772 mmHg 67%
    01:00 +6°C° 0 mm 0 mps 771 mmHg 69%
    02:00 +5°C° 0 mm 0 mps 771 mmHg 70%
    03:00 +5°C° 0 mm 0 mps 771 mmHg 72%
    04:00 +5°C° 0 mm 0 mps 771 mmHg 73%
    05:00 +5°C° 0 mm 0 mps 771 mmHg 74%
    06:00 +4°C° 0 mm 0 mps 771 mmHg 75%
    07:00 +6°C° 0 mm 0 mps 771 mmHg 68%
    08:00 +7°C° 0 mm 0 mps 771 mmHg 61%
    09:00 +9°C° 0 mm 0 mps 771 mmHg 54%
    10:00 +10°C° 0 mm 0 mps 770 mmHg 50%
    11:00 +11°C° 0 mm 0 mps 770 mmHg 46%
    12:00 +14°C° 0 mm 1 mps 770 mmHg 41%
    13:00 +14°C° 0 mm 1 mps 769 mmHg 40%
    14:00 +14°C° 0 mm 1 mps 769 mmHg 39%
    15:00 +14°C° 0 mm 1 mps 768 mmHg 38%
    16:00 +13°C° 0 mm 1 mps 769 mmHg 44%
    17:00 +11°C° 0 mm 1 mps 769 mmHg 49%
    18:00 +10°C° 0 mm 1 mps 769 mmHg 54%
    19:00 +9°C° 0 mm 0 mps 769 mmHg 55%
    20:00 +8°C° 0 mm 0 mps 769 mmHg 56%
    21:00 +8°C° 0 mm 0 mps 769 mmHg 57%
    22:00 +8°C° 0 mm 0 mps 769 mmHg 58%
    23:00 +7°C° 0 mm 0 mps 769 mmHg 59%

    Tomorrow, 19 November, Tuesday

    Time Temperature Precipitation Wind Pressure Humidity
    00:00 +7°C° 0 mm 0 mps 769 mmHg 61%
    01:00 +7°C° 0 mm 0 mps 768 mmHg 62%
    02:00 +6°C° 0 mm 0 mps 768 mmHg 64%
    03:00 +6°C° 0 mm 0 mps 768 mmHg 65%
    04:00 +7°C° 0 mm 1 mps 768 mmHg 66%
    05:00 +7°C° 0 mm 1 mps 768 mmHg 66%
    06:00 +6°C° 0 mm 1 mps 768 mmHg 67%
    07:00 +8°C° 0 mm 1 mps 768 mmHg 61%
    08:00 +10°C° 0 mm 1 mps 768 mmHg 54%
    09:00 +11°C° 0 mm 1 mps 768 mmHg 48%
    10:00 +12°C° 0 mm 1 mps 768 mmHg 45%
    11:00 +13°C° 0 mm 1 mps 767 mmHg 42%
    12:00 +15°C° 0 mm 1 mps 767 mmHg 39%
    13:00 +15°C° 0 mm 1 mps 766 mmHg 38%
    14:00 +15°C° 0 mm 1 mps 766 mmHg 36%
    15:00 +15°C° 0 mm 1 mps 766 mmHg 35%
    16:00 +14°C° 0 mm 1 mps 766 mmHg 40%
    17:00 +12°C° 0 mm 1 mps 766 mmHg 44%
    18:00 +11°C° 0 mm 1 mps 767 mmHg 48%
    19:00 +11°C° 0 mm 1 mps 767 mmHg 50%
    20:00 +10°C° 0 mm 1 mps 767 mmHg 51%
    21:00 +10°C° 0 mm 1 mps 767 mmHg 52%
    22:00 +9°C° 0 mm 1 mps 767 mmHg 55%
    23:00 +9°C° 0 mm 1 mps 767 mmHg 58%

    Day after tomorrow, 20 November, Wednesday

    Time Temperature Precipitation Wind Pressure Humidity
    00:00 +7°C° 0 mm 0 mps 767 mmHg 61%
    01:00 +8°C° 0 mm 1 mps 767 mmHg 62%
    02:00 +8°C° 0 mm 1 mps 767 mmHg 63%
    03:00 +7°C° 0 mm 1 mps 766 mmHg 65%
    04:00 +7°C° 0 mm 1 mps 766 mmHg 64%
    05:00 +7°C° 0 mm 1 mps 766 mmHg 64%
    06:00 +7°C° 0 mm 1 mps 766 mmHg 63%
    07:00 +8°C° 0 mm 1 mps 766 mmHg 57%
    08:00 +10°C° 0 mm 1 mps 766 mmHg 52%
    09:00 +10°C° 0 mm 0 mps 766 mmHg 46%
    10:00 +13°C° 0 mm 1 mps 766 mmHg 42%
    11:00 +14°C° 0 mm 1 mps 765 mmHg 39%
    12:00 +15°C° 0 mm 1 mps 765 mmHg 35%
    13:00 +15°C° 0 mm 1 mps 765 mmHg 34%
    14:00 +16°C° 0 mm 2 mps 764 mmHg 33%
    15:00 +16°C° 0 mm 2 mps 764 mmHg 32%
    16:00 +15°C° 0 mm 2 mps 764 mmHg 37%
    17:00 +13°C° 0 mm 2 mps 765 mmHg 42%
    18:00 +12°C° 0 mm 2 mps 765 mmHg 47%
    19:00 +10°C° 0 mm 3 mps 766 mmHg 52%
    20:00 +9°C° 0 mm 3 mps 766 mmHg 58%
    21:00 +8°C° 0 mm 4 mps 766 mmHg 63%
    22:00 +8°C° 0 mm 3 mps 766 mmHg 70%
    23:00 +8°C° 0 mm 3 mps 766 mmHg 77%

    21 November, Thursday

    Time Temperature Precipitation Wind Pressure Humidity
    00:00 +7°C° 0 mm 2 mps 766 mmHg 85%
    01:00 +7°C° 0 mm 2 mps 766 mmHg 84%
    02:00 +8°C° 0 mm 2 mps 766 mmHg 83%
    03:00 +8°C° 0 mm 2 mps 766 mmHg 82%
    04:00 +8°C° 0 mm 2 mps 766 mmHg 82%
    05:00 +8°C° 0 mm 2 mps 766 mmHg 81%
    06:00 +8°C° 0 mm 2 mps 766 mmHg 81%
    07:00 +8°C° 0 mm 2 mps 766 mmHg 78%
    08:00 +9°C° 0 mm 3 mps 767 mmHg 75%
    09:00 +9°C° 0 mm 3 mps 767 mmHg 73%
    10:00 +9°C° 0.1 mm 3 mps 767 mmHg 72%
    11:00 +9°C° 0.1 mm 3 mps 767 mmHg 71%
    12:00 +9°C° 0.1 mm 3 mps 767 mmHg 69%
    13:00 +9°C° 0 mm 3 mps 767 mmHg 69%
    14:00 +9°C° 0 mm 3 mps 767 mmHg 69%
    15:00 +10°C° 0 mm 3 mps 767 mmHg 69%
    16:00 +9°C° 0.1 mm 3 mps 767 mmHg 73%
    17:00 +9°C° 0.1 mm 3 mps 768 mmHg 77%
    18:00 +8°C° 0.1 mm 3 mps 768 mmHg 82%
    19:00 +8°C° 0.2 mm 3 mps 769 mmHg 84%
    20:00 +8°C° 0.2 mm 3 mps 769 mmHg 85%
    21:00 +7°C° 0.2 mm 4 mps 770 mmHg 87%
    22:00 +7°C° 0.3 mm 4 mps 770 mmHg 83%
    23:00 +7°C° 0.3 mm 4 mps 770 mmHg 79%

    22 November, Friday

    Time Temperature Precipitation Wind Pressure Humidity
    00:00 +6°C° 0.3 mm 4 mps 770 mmHg 75%
    01:00 +6°C° 0.1 mm 4 mps 771 mmHg 75%
    02:00 +6°C° 0.1 mm 4 mps 771 mmHg 76%
    03:00 +6°C° 0.1 mm 4 mps 771 mmHg 76%
    04:00 +6°C° 0.1 mm 5 mps 772 mmHg 76%
    05:00 +5°C° 0.1 mm 5 mps 772 mmHg 75%
    06:00 +4°C° 0.1 mm 6 mps 773 mmHg 74%
    07:00 +4°C° 0 mm 6 mps 773 mmHg 73%
    08:00 +5°C° 0 mm 5 mps 774 mmHg 73%
    09:00 +5°C° 0 mm 5 mps 774 mmHg 72%
    10:00 +6°C° 0 mm 5 mps 774 mmHg 69%
    11:00 +6°C° 0 mm 5 mps 774 mmHg 66%
    12:00 +7°C° 0 mm 5 mps 774 mmHg 63%
    13:00 +7°C° 0 mm 4 mps 774 mmHg 61%
    14:00 +7°C° 0 mm 4 mps 773 mmHg 59%
    15:00 +8°C° 0 mm 4 mps 773 mmHg 56%
    16:00 +7°C° 0 mm 4 mps 774 mmHg 60%
    17:00 +8°C° 0 mm 3 mps 774 mmHg 65%
    18:00 +7°C° 0 mm 3 mps 774 mmHg 69%
    19:00 +7°C° 0 mm 3 mps 774 mmHg 68%
    20:00 +7°C° 0 mm 3 mps 775 mmHg 68%
    21:00 +5°C° 0 mm 4 mps 775 mmHg 68%
    22:00 +5°C° 0 mm 4 mps 775 mmHg 69%
    23:00 +5°C° 0 mm 3 mps 774 mmHg 69%

    23 November, Saturday

    Time Temperature Precipitation Wind Pressure Humidity
    00:00 +4°C° 0 mm 3 mps 774 mmHg 70%
    01:00 +4°C° 0 mm 3 mps 774 mmHg 73%
    02:00 +5°C° 0 mm 2 mps 774 mmHg 75%
    03:00 +5°C° 0 mm 2 mps 773 mmHg 78%
    04:00 +5°C° 0 mm 2 mps 773 mmHg 78%
    05:00 +4°C° 0 mm 2 mps 773 mmHg 78%
    06:00 +4°C° 0 mm 2 mps 773 mmHg 78%
    07:00 +5°C° 0 mm 2 mps 773 mmHg 78%
    08:00 +5°C° 0 mm 2 mps 773 mmHg 77%
    09:00 +5°C° 0 mm 2 mps 773 mmHg 76%
    10:00 +6°C° 0 mm 2 mps 773 mmHg 72%
    11:00 +7°C° 0 mm 2 mps 772 mmHg 68%
    12:00 +7°C° 0 mm 2 mps 772 mmHg 64%
    13:00 +9°C° 0 mm 1 mps 772 mmHg 62%
    14:00 +9°C° 0 mm 1 mps 771 mmHg 60%
    15:00 +9°C° 0 mm 1 mps 771 mmHg 58%
    16:00 +8°C° 0 mm 1 mps 771 mmHg 64%
    17:00 +8°C° 0 mm 1 mps 771 mmHg 69%
    18:00 +7°C° 0 mm 1 mps 772 mmHg 75%
    19:00 +7°C° 0 mm 1 mps 771 mmHg 76%
    20:00 +6°C° 0 mm 1 mps 771 mmHg 76%
    21:00 +6°C° 0 mm 1 mps 771 mmHg 77%
    22:00 +5°C° 0 mm 2 mps 771 mmHg 78%
    23:00 +5°C° 0 mm 2 mps 771 mmHg 78%
    Show more